Regional Weather Roundup
Issued by NWS

Home | Current Version | Previous Version | Graphics & Text | Print | Product List | Glossary On
Versions: 1 2 3 4 5 6 7 8 9 10 11 12 13 14 15 16 17 18 19 20 21 22 23 24 25 26 27 28 29 30 31 32 33 34 35 36 37 38 39 40 41 42 43 44 45 46 47 48 49 50
000
ASUS43 KLSX 070157
RWRMO

WEATHER SUMMARY FOR MISSOURI
NATIONAL WEATHER SERVICE SPRINGFIELD MO
800 PM CST SAT FEB 06 2016

NOTE: "FAIR" INDICATES FEW OR NO CLOUDS BELOW 12,000 FEET WITH NO
       SIGNIFICANT WEATHER AND/OR OBSTRUCTIONS TO VISIBILITY.
       CURRENT SKY AND/OR WEATHER CONDITIONS ARE NOT AVAILABLE FOR
       CHILLICOTHE AND FARMINGTON.

MOZ001>031-035>038-043-044-053-054-070300-
...NORTHERN AND WESTERN MISSOURI...

CITY           SKY/WX    TMP DP  RH WIND       PRES   REMARKS
KANSAS CTY INT CLOUDY    40  29  64 SW12      30.12F
LEE`S SUMMIT   CLEAR     41  29  62 S12       30.14F
ST JOSEPH      CLOUDY    36  28  73 S7        30.11F
CHILLICOTHE      N/A     39  29  67 S6        30.13F

$$
MOZ066>068-077>081-088>096-101>105-070300-
...SOUTHWEST MISSOURI...

CITY           SKY/WX    TMP DP  RH WIND       PRES   REMARKS
SPRINGFIELD    CLEAR     37  25  61 SW7       30.21F
JOPLIN         CLEAR     39  28  64 S7        30.23F

$$
MOZ032>034-039>042-045>050-055>058-069>072-070300-
...CENTRAL MISSOURI...

CITY           SKY/WX    TMP DP  RH WIND       PRES   REMARKS
COLUMBIA       NOT AVBL
JEFFERSON CITY CLEAR     45  27  49 W5        30.19F
ROLLA          CLEAR     38  26  62 SW7       30.18F
SEDALIA        CLEAR     41  27  57 SW8       30.19F

$$
MOZ051-052-059>065-070300-
...EAST CENTRAL MISSOURI...

CITY           SKY/WX    TMP DP  RH WIND       PRES   REMARKS
ST LOUIS INTL  PTCLDY    45  26  47 SW5       30.19F

$$
MOZ072>076-082>087-097>100-106>115-070300-
...SOUTH CENTRAL AND SOUTHEAST MISSOURI...

CITY           SKY/WX    TMP DP  RH WIND       PRES   REMARKS
CAPE GIRARDEAU CLEAR     43  25  49 SW10      30.26S
POPLAR BLUFF   CLEAR     40  25  55 SW7       30.27S
WEST PLAINS    CLEAR     42  16  34 S5        30.24F

$$


USA.gov is the U.S. government's official web portal to all federal, state and local government web resources and services.